Main page
METAR-TAF:

METAR-TAF

Airports :

Pontoise, France

Pontoise – Cormeilles Aerodrome

latitude: 49-05-48N, longitude: 002-02-27E, elevation: 99 m

Current weather observation

The report was made 39 minutes ago, at 06:30 UTC
Wind 7 kt from the West/Southwest, varying between South/Southwest and West
Temperature 13°C
Humidity 88%
Pressure 1020 hPa
Visibility 10 km or more
no clouds below 1500 m and no cumulonimbus

METAR: LFPT 190630Z AUTO 24007KT 210V270 CAVOK 13/11 Q1020

Time: 09:09 (07:09 UTC)


TAF: missing

Weather observations and forecasts of more than 4000 airports (METAR and TAF reports).

The available stations are represented by yellow and red dots on the map.

Hover mouse over dot to see the name of the station.

Then click to see weather observations and forecasts.

To change the map : click on the green buttons with a black cross to zoom in, on the green button with a dash to zoom out, or on the green arrows for adjacent maps.


METAR-TAF: